Location: Brasstown Bald
(34.8693°N, 83.8103°W)
Time: 06:54:22
(UTC-05:00)

Amateur Radio Satellites - All Passes

Search period start: 08 December 2016 06:24
Search period end: 09 December 2016 06:24
Location: Brasstown Bald, 34.8693°N, 83.8103°W

Satellite Date Start Highest point End Downlink Frequencies (MHz)
Time Altitude Azimuth
YUBILEINY 08 Dec 06:30:51 06:39:42 72° 83° (E) 06:48:30 435.215
SO-50 08 Dec 06:32:23 06:34:48 14° 252° (WSW) 06:37:11 436.795
CUTE-I 08 Dec 06:43:52 06:49:08 62° 101° (E) 06:54:23 437.470
RS-15 08 Dec 06:45:10 06:56:13 53° 109° (ESE) 07:07:47 29.354- 29.394
CINEMA 3 08 Dec 06:48:16 06:49:57 12° 90° (E) 06:51:37 145.822/145.860
AIST 2 08 Dec 06:51:49 06:54:42 19° 110° (ESE) 06:57:37 435.215
Cosmos 2491 08 Dec 06:54:58 07:03:34 62° 92° (E) 07:12:09 435.465 / 435.565
NOAA 15 08 Dec 06:59:07 07:04:25 84° 285° (WNW) 07:09:43 137.62
Cubesat XI-IV 08 Dec 07:10:34 07:15:54 74° 285° (WNW) 07:21:11 437.490
LilacSat-2 08 Dec 07:11:50 07:15:24 41° 285° (WNW) 07:18:56 437.200
NOAA 18 08 Dec 07:12:23 07:17:55 70° 103° (ESE) 07:23:23 137.9125
AIST 1 08 Dec 07:17:14 07:21:39 90° 57° (ENE) 07:26:03
DOVE 4 08 Dec 07:21:11 07:26:24 63° 285° (WNW) 07:31:23 437.250
GOMX 1 08 Dec 07:22:59 07:27:34 28° 291° (WNW) 07:32:07 467.674
HO-68 08 Dec 07:25:33 07:31:31 28° 96° (E) 07:37:26 435.675
STRAND 1 08 Dec 07:38:06 07:43:05 51° 260° (W) 07:48:04 437.568
CUTE 1.7 + AOD 2 08 Dec 07:49:58 07:53:50 34° 98° (E) 07:57:41 437.475
AAUSAT CUBESAT 2 08 Dec 08:03:12 08:05:43 15° 94° (E) 08:08:12 437.432
Cosmos 2504 08 Dec 08:06:41 08:15:08 57° 270° (W) 08:23:01 435.465 / 435.565
CANX-2 08 Dec 08:08:13 08:12:26 71° 101° (E) 08:16:38 2200.000
PRISM 08 Dec 08:09:34 08:12:24 19° 68° (ENE) 08:15:15 437.425
CINEMA 3 08 Dec 08:22:50 08:27:27 54° 286° (WNW) 08:31:50 145.822/145.860
CUBEBUG 2 08 Dec 08:25:01 08:28:56 33° 97° (E) 08:32:44 437.445
CUTE-I 08 Dec 08:25:45 08:28:36 15° 297° (WNW) 08:31:27 437.470
SEEDS 08 Dec 08:28:39 08:32:50 69° 102° (ESE) 08:37:01 437.485
AIST 2 08 Dec 08:29:16 08:32:55 31° 305° (NW) 08:36:39 435.215
YUBILEINY 08 Dec 08:29:36 08:35:30 20° 279° (W) 08:41:26 435.215
COMPASS 1 08 Dec 08:34:34 08:38:38 51° 100° (E) 08:42:41 437.405
Oscar 11 08 Dec 08:37:00 08:39:21 14° 93° (E) 08:41:43 145.826/435.025
CUSAT 1 08 Dec 08:43:26 08:44:42 12° 95° (E) 08:45:54 437.405
Cosmos 2491 08 Dec 08:54:03 09:00:54 25° 289° (WNW) 09:07:47 435.465 / 435.565
NOAA 18 08 Dec 08:55:08 08:57:54 14° 298° (WNW) 09:00:40 137.9125
RS-15 08 Dec 08:57:45 09:08:51 45° 311° (NW) 09:20:30 29.354- 29.394
UWE-3 08 Dec 09:02:10 09:06:22 58° 100° (E) 09:10:27 435.000/436.395/437.385
HO-68 08 Dec 09:12:31 09:19:22 49° 291° (WNW) 09:26:13 435.675
UNISAT 6 08 Dec 09:24:35 09:28:42 31° 71° (ENE) 09:32:47 437.425
CUTE 1.7 + AOD 2 08 Dec 09:26:44 09:29:22 16° 292° (WNW) 09:32:00 437.475
AAUSAT CUBESAT 2 08 Dec 09:37:30 09:41:14 33° 287° (WNW) 09:44:59 437.432
ZACube-1 08 Dec 09:37:43 09:41:55 87° 283° (WNW) 09:46:03 437.345
PRISM 08 Dec 09:43:58 09:47:28 28° 263° (W) 09:50:59 437.425
FUNcube-1 08 Dec 09:43:59 09:48:11 80° 283° (WNW) 09:52:18 145.935
JAS-2 08 Dec 09:45:27 09:48:25 14° 64° (ENE) 09:51:15 435.910
DANDE 08 Dec 09:50:19 09:54:27 30° 97° (E) 09:57:44 436.750
TIGRISAT 08 Dec 09:53:12 09:57:49 61° 76° (ENE) 10:02:25 435.000
ANTELSAT 08 Dec 09:55:17 09:59:57 69° 76° (ENE) 10:04:35 437.575/2403.000
JUGNU 08 Dec 10:02:11 10:04:47 13° 167° (SSE) 10:07:22 437.505
CUBEBUG 2 08 Dec 10:02:27 10:05:15 17° 292° (WNW) 10:08:00 437.445
Oscar 11 08 Dec 10:11:36 10:15:36 39° 287° (WNW) 10:19:36 145.826/435.025
COMPASS 1 08 Dec 10:12:31 10:13:41 11° 294° (WNW) 10:14:51 437.405
DELFI C3 08 Dec 10:14:16 10:18:16 76° 101° (E) 10:22:15 145.870
POPSAT HIP 1 08 Dec 10:16:53 10:17:21 10° 65° (ENE) 10:17:50 437.405
CUSAT 1 08 Dec 10:24:47 10:26:26 14° 282° (WNW) 10:27:58 437.405
AO-85 08 Dec 10:34:05 10:37:40 32° 56° (NE) 10:41:09 145.980
PCSat 08 Dec 10:38:59 10:43:58 39° 110° (ESE) 10:48:58 145.827
HUMSAT D 08 Dec 10:43:43 10:47:48 84° 102° (ESE) 10:51:52 437.325/437.525
Cosmos 2499 08 Dec 10:59:21 11:06:16 27° 71° (ENE) 11:12:45 435.465 / 435.565
UNISAT 6 08 Dec 11:01:45 11:05:21 22° 265° (W) 11:08:58 437.425
ESTCUBE 1 08 Dec 11:02:50 11:05:40 16° 94° (E) 11:08:30 437.505/2401.250
NANOSAT C BR1 08 Dec 11:05:52 11:09:47 37° 73° (ENE) 11:13:44 145.865
GONETS M04 08 Dec 11:09:21 11:16:45 30° 73° (ENE) 11:24:07
QB50P2 08 Dec 11:13:55 11:18:07 56° 75° (ENE) 11:22:19 145.880/145.840
POLYITAN 1 08 Dec 11:14:25 11:18:35 53° 74° (ENE) 11:22:46 437.675
CUBEBUG 1 08 Dec 11:18:31 11:20:52 14° 93° (E) 11:23:12 437.445
RS-15 08 Dec 11:19:01 11:25:55 16° 342° (NNW) 11:32:54 29.354- 29.394
JAS-2 08 Dec 11:26:25 11:33:00 77° 257° (WSW) 11:38:49 435.910
DUCHIFAT 1 08 Dec 11:26:25 11:30:37 62° 75° (ENE) 11:34:49 145.980
QB50P1 08 Dec 11:26:30 11:30:45 74° 76° (ENE) 11:35:02 145.935-145.965
TIGRISAT 08 Dec 11:33:35 11:34:48 11° 268° (W) 11:36:00 435.000
DANDE 08 Dec 11:34:44 11:36:56 14° 281° (W) 11:38:53 436.750
VELOX 1 08 Dec 11:35:48 11:38:14 14° 93° (E) 11:40:40 145.980
POPSAT HIP 1 08 Dec 11:48:20 11:52:33 60° 259° (W) 11:56:49 437.405
JUGNU 08 Dec 11:49:05 11:53:04 18° 177° (S) 11:57:02 437.505
SPROUT 08 Dec 11:50:19 11:52:21 13° 93° (E) 11:54:22 437.525
BUGSAT 1 08 Dec 12:12:49 12:17:02 80° 77° (ENE) 12:21:18 437.445
50 SAT 08 Dec 12:14:39 12:17:51 31° 98° (E) 12:21:03 437.505
AO-85 08 Dec 12:15:27 12:17:43 15° 251° (WSW) 12:19:58 145.980
Oscar 19 08 Dec 12:17:14 12:21:00 21° 67° (ENE) 12:24:46 437.125/150
PCSat 08 Dec 12:22:59 12:27:25 25° 306° (NW) 12:31:54 145.827
AISAT 08 Dec 12:33:42 12:38:11 76° 103° (ESE) 12:42:37 437.250
Gurwin Techsat 1B 08 Dec 12:34:41 12:37:49 16° 64° (ENE) 12:40:58 435.225
ESTCUBE 1 08 Dec 12:38:23 12:42:34 38° 288° (WNW) 12:46:45 437.505/2401.250
NANOSAT C BR1 08 Dec 12:43:11 12:45:37 15° 266° (W) 12:48:02 145.865
Cosmos 2499 08 Dec 12:51:39 12:59:47 54° 270° (W) 13:07:18 435.465 / 435.565
CUBEBUG 1 08 Dec 12:53:06 12:57:18 42° 287° (WNW) 13:01:27 437.445
POLYITAN 1 08 Dec 12:53:45 12:54:37 11° 268° (W) 12:55:29 437.675
TISAT 1 08 Dec 13:03:00 13:04:59 13° 93° (E) 13:06:58 437.305
GONETS M04 08 Dec 13:05:28 13:13:48 52° 270° (W) 13:22:09
VELOX 1 08 Dec 13:10:38 13:14:51 42° 287° (WNW) 13:19:03 145.980
DX 1 08 Dec 13:15:02 13:19:25 75° 285° (WNW) 13:23:47 434.975-435.025
UKube-1 08 Dec 13:16:58 13:21:19 84° 104° (ESE) 13:25:39 .
SPROUT 08 Dec 13:24:23 13:28:26 42° 287° (WNW) 13:32:27 437.525
BEESAT 3 08 Dec 13:27:15 13:30:51 31° 56° (NE) 13:34:24 437.485
SRMSAT 08 Dec 13:33:09 13:36:47 17° 173° (S) 13:40:24 437.500
JUGNU 08 Dec 13:37:42 13:41:22 17° 187° (S) 13:45:02 437.505
RS-15 08 Dec 13:38:41 13:46:01 17° 20° (NNE) 13:53:17 29.354- 29.394
50 SAT 08 Dec 13:49:17 13:50:50 12° 292° (WNW) 13:52:21 437.505
Oscar 19 08 Dec 13:55:14 14:00:00 39° 261° (W) 14:04:49 437.125/150
BEESAT 2 08 Dec 14:02:00 14:05:41 33° 56° (NE) 14:09:21 435.950
SWISSCUBE 08 Dec 14:10:51 14:13:56 17° 94° (E) 14:17:02 437.505
Gurwin Techsat 1B 08 Dec 14:12:02 14:17:14 57° 259° (W) 14:22:29 435.225
BEESAT 08 Dec 14:14:40 14:17:42 17° 94° (E) 14:20:43 436.000
ITAMSAT 1 08 Dec 14:29:10 14:34:06 45° 72° (ENE) 14:39:03 435.822/435.867
AO-7 08 Dec 14:36:29 14:44:14 46° 65° (ENE) 14:52:03 29.400- 29.500
TISAT 1 08 Dec 14:36:48 14:40:46 41° 287° (WNW) 14:44:42 437.305
ITUPSAT 1 08 Dec 14:43:04 14:47:23 34° 98° (E) 14:51:41 437.325
ISS 08 Dec 14:58:37 15:01:46 46° 133° (SE) 15:04:56 145.825
MOZHAYETS 4 08 Dec 14:58:58 14:59:41 10° 91° (E) 15:00:24
BEESAT 3 08 Dec 15:05:32 15:08:12 17° 250° (WSW) 15:10:52 437.485
AUBIESAT-1 08 Dec 15:10:49 15:15:14 52° 104° (ESE) 15:19:25 437.475
O/OREOS (USA 219) 08 Dec 15:18:18 15:22:30 37° 105° (ESE) 15:26:42 437.305
SRMSAT 08 Dec 15:21:21 15:25:14 18° 183° (S) 15:29:07 437.500
M-CUBED/EXP-1 PRIME 08 Dec 15:25:18 15:29:57 83° 288° (WNW) 15:34:20 437.505
BEESAT 2 08 Dec 15:40:36 15:43:11 17° 250° (WSW) 15:45:45 435.950
SWISSCUBE 08 Dec 15:47:25 15:51:51 40° 288° (WNW) 15:56:15 437.505
RS-15 08 Dec 15:50:59 16:02:50 48° 51° (NE) 16:14:15 29.354- 29.394
BEESAT 08 Dec 15:51:09 15:55:36 41° 288° (WNW) 16:00:02 436.000
BRITE-PL 08 Dec 15:52:35 15:54:16 12° 64° (ENE) 15:55:59 437.365/2234.400
ITAMSAT 1 08 Dec 16:10:10 16:13:43 18° 266° (W) 16:17:16 435.822/435.867
ITUPSAT 1 08 Dec 16:21:25 16:24:58 21° 292° (WNW) 16:28:30 437.325
AO-7 08 Dec 16:29:41 16:37:02 35° 261° (W) 16:44:28 29.400- 29.500
MOZHAYETS 4 08 Dec 16:32:40 16:37:10 59° 285° (WNW) 16:41:38
ISS 08 Dec 16:36:09 16:38:26 17° 329° (NNW) 16:40:45 145.825
NOAA 15 08 Dec 16:40:00 16:41:58 12° 62° (ENE) 16:43:56 137.62
STARS 08 Dec 16:41:30 16:45:15 27° 97° (E) 16:48:59 437.465
KKS-1 08 Dec 16:42:44 16:47:13 67° 102° (ESE) 16:51:38 437.445
CUBESAT XI-V 08 Dec 16:43:25 16:47:03 22° 95° (E) 16:50:41 437.345
AUBIESAT-1 08 Dec 16:46:46 16:49:06 14° 300° (WNW) 16:51:21 437.475
GOMX 1 08 Dec 16:50:09 16:53:43 22° 68° (ENE) 16:57:28 467.674
HORYU 2 08 Dec 16:51:30 16:55:47 46° 73° (ENE) 17:00:05 437.375
Cubesat XI-IV 08 Dec 16:52:04 16:54:58 15° 64° (ENE) 16:57:54 437.490
AIST 2 08 Dec 16:53:00 16:57:11 58° 59° (ENE) 17:01:20 435.215
O/OREOS (USA 219) 08 Dec 16:58:53 17:02:01 18° 300° (WNW) 17:05:07 437.305
NOAA 18 08 Dec 16:59:16 17:00:57 11° 60° (ENE) 17:02:37 137.9125
Cosmos 2491 08 Dec 17:10:27 17:17:20 25° 71° (ENE) 17:24:09 435.465 / 435.565
SRMSAT 08 Dec 17:11:13 17:13:39 13° 193° (SSW) 17:16:05 437.500
BRITE-PL 08 Dec 17:27:59 17:32:09 52° 261° (W) 17:36:38 437.365/2234.400
YUBILEINY 08 Dec 17:36:02 17:40:19 15° 78° (ENE) 17:44:36 435.215
LilacSat-2 08 Dec 17:49:54 17:53:38 52° 76° (ENE) 17:57:23 437.200
HO-68 08 Dec 17:53:13 17:56:56 15° 57° (ENE) 18:00:39 435.675
CUTE-I 08 Dec 18:02:11 18:07:32 73° 75° (ENE) 18:12:54 437.470
RS-15 08 Dec 18:03:47 18:15:19 50° 252° (WSW) 18:26:25 29.354- 29.394
NOAA 15 08 Dec 18:15:50 18:21:03 74° 257° (WSW) 18:26:18 137.62
STARS 08 Dec 18:18:01 18:21:26 22° 291° (WNW) 18:24:49 437.465
CUBESAT XI-V 08 Dec 18:20:19 18:24:23 30° 289° (WNW) 18:28:28 437.345
DOVE 4 08 Dec 18:22:25 18:27:12 89° 76° (ENE) 18:32:19 437.250
GOMX 1 08 Dec 18:27:30 18:31:33 31° 265° (W) 18:35:52 467.674
Cubesat XI-IV 08 Dec 18:29:09 18:34:27 63° 258° (WSW) 18:39:48 437.490
HORYU 2 08 Dec 18:30:21 18:32:31 13° 267° (W) 18:34:42 437.375
AIST 2 08 Dec 18:34:28 18:35:06 10° 253° (WSW) 18:35:46 435.215
NOAA 18 08 Dec 18:35:15 18:40:47 86° 255° (WSW) 18:46:23 137.9125
CUTE 1.7 + AOD 2 08 Dec 18:40:21 18:43:01 17° 69° (ENE) 18:45:41 437.475
Cosmos 2504 08 Dec 18:48:32 18:54:48 24° 82° (E) 19:01:16 435.465 / 435.565
CANX-2 08 Dec 18:57:47 19:01:29 31° 72° (ENE) 19:05:13 2200.000
SO-50 08 Dec 19:01:15 19:05:34 34° 113° (ESE) 19:09:50 436.795
Cosmos 2491 08 Dec 19:06:07 19:14:38 61° 269° (W) 19:23:08 435.465 / 435.565
SEEDS 08 Dec 19:17:12 19:20:49 29° 72° (ENE) 19:24:26 437.485
CUBEBUG 2 08 Dec 19:19:45 19:23:20 22° 69° (ENE) 19:26:54 437.445
CINEMA 3 08 Dec 19:19:46 19:24:42 89° 69° (ENE) 19:29:45 145.822/145.860
COMPASS 1 08 Dec 19:22:30 19:25:41 22° 70° (ENE) 19:28:53 437.405
YUBILEINY 08 Dec 19:27:04 19:35:46 89° 271° (W) 19:44:35 435.215
PCSat 08 Dec 19:30:55 19:34:29 17° 50° (NE) 19:38:01 145.827
HO-68 08 Dec 19:36:28 19:43:37 89° 75° (ENE) 19:50:51 435.675
AIST 1 08 Dec 19:42:42 19:46:56 62° 94° (E) 19:51:14
CUTE-I 08 Dec 19:46:28 19:48:01 11° 269° (W) 19:49:36 437.470
STRAND 1 08 Dec 19:51:46 19:56:52 72° 101° (ESE) 20:01:56 437.568
UWE-3 08 Dec 19:55:23 19:59:32 33° 72° (ENE) 20:03:38 435.000/436.395/437.385
CUTE 1.7 + AOD 2 08 Dec 20:14:45 20:18:33 33° 263° (W) 20:22:22 437.475
AAUSAT CUBESAT 2 08 Dec 20:23:33 20:27:39 84° 260° (W) 20:31:46 437.432
ZACube-1 08 Dec 20:29:32 20:33:54 47° 74° (ENE) 20:38:12 437.345
DANDE 08 Dec 20:31:25 20:32:13 11° 79° (ENE) 20:33:03 436.750
CANX-2 08 Dec 20:34:34 20:37:22 17° 266° (W) 20:40:10 2200.000
FUNcube-1 08 Dec 20:35:29 20:39:51 50° 75° (ENE) 20:44:11 145.935
Cosmos 2504 08 Dec 20:39:05 20:47:19 64° 279° (W) 20:56:05 435.465 / 435.565
SO-50 08 Dec 20:42:10 20:46:03 24° 308° (NW) 20:49:55 436.795
SEEDS 08 Dec 20:53:40 20:56:30 18° 266° (W) 20:59:21 437.485
CUBEBUG 2 08 Dec 20:55:25 20:59:42 33° 263° (W) 21:03:58 437.445
CUSAT 1 08 Dec 20:55:29 20:59:36 59° 263° (W) 21:05:02 437.405
DELFI C3 08 Dec 20:56:58 21:00:13 25° 72° (ENE) 21:03:29 145.870
COMPASS 1 08 Dec 20:57:47 21:01:05 23° 264° (W) 21:04:25 437.405
Oscar 11 08 Dec 21:02:19 21:06:37 81° 258° (WSW) 21:10:57 145.826/435.025
PCSat 08 Dec 21:12:56 21:18:18 63° 247° (WSW) 21:23:37 145.827
PRISM 08 Dec 21:27:53 21:31:55 46° 100° (E) 21:35:56 437.425
YUBILEINY 08 Dec 21:29:01 21:33:45 15° 295° (WNW) 21:38:32 435.215
HO-68 08 Dec 21:29:03 21:32:05 13° 269° (W) 21:35:08 435.675
ISS 08 Dec 21:29:48 21:31:59 16° 30° (NNE) 21:34:09 145.825
HUMSAT D 08 Dec 21:31:27 21:35:18 36° 73° (ENE) 21:39:07 437.325/437.525
UWE-3 08 Dec 21:32:32 21:35:59 20° 265° (W) 21:39:24 435.000/436.395/437.385
STRAND 1 08 Dec 21:33:35 21:35:23 12° 297° (WNW) 21:37:10 437.568
TIGRISAT 08 Dec 21:49:42 21:52:13 15° 93° (E) 21:54:42 435.000
ANTELSAT 08 Dec 21:51:41 21:54:32 17° 94° (E) 21:57:21 437.575/2403.000
ESTCUBE 1 08 Dec 22:01:25 22:02:12 10° 64° (ENE) 22:02:59 437.505/2401.250
PHONESAT 2.4 08 Dec 22:02:38 22:04:11 14° 145° (SE) 22:05:45 2401.200-2431.200
ZACube-1 08 Dec 22:08:08 22:10:20 13° 267° (W) 22:12:32 437.345
DANDE 08 Dec 22:11:59 22:14:43 25° 263° (W) 22:18:01 436.750
FUNcube-1 08 Dec 22:14:26 22:16:17 12° 268° (W) 22:18:08 145.935
DELFI C3 08 Dec 22:32:16 22:34:59 18° 265° (W) 22:37:42 145.870
JAS-2 08 Dec 22:41:13 22:43:26 12° 93° (E) 22:45:42 435.910
UNISAT 6 08 Dec 22:55:44 23:00:05 77° 283° (WNW) 23:04:20 437.425
QB50P2 08 Dec 23:04:25 23:05:51 11° 92° (E) 23:07:16 145.880/145.840
PRISM 08 Dec 23:05:04 23:06:46 12° 294° (WNW) 23:08:28 437.425
POLYITAN 1 08 Dec 23:05:16 23:06:16 11° 92° (E) 23:07:15 437.675
ISS 08 Dec 23:05:28 23:08:43 54° 226° (SW) 23:11:56 145.825
HUMSAT D 08 Dec 23:08:34 23:10:59 15° 266° (W) 23:13:24 437.325/437.525
DUCHIFAT 1 08 Dec 23:15:47 23:17:32 12° 93° (E) 23:19:16 145.980
QB50P1 08 Dec 23:15:55 23:18:24 15° 94° (E) 23:20:51 145.935-145.965
TIGRISAT 08 Dec 23:25:03 23:29:02 36° 288° (WNW) 23:32:57 435.000
ANTELSAT 08 Dec 23:27:26 23:31:19 32° 288° (WNW) 23:35:07 437.575/2403.000
AISAT 08 Dec 23:27:32 23:31:41 42° 73° (ENE) 23:35:54 437.250
Cosmos 2499 08 Dec 23:31:27 23:37:56 25° 82° (E) 23:44:36 435.465 / 435.565
ESTCUBE 1 08 Dec 23:33:59 23:38:24 64° 259° (WSW) 23:42:51 437.505/2401.250
PHONESAT 2.4 08 Dec 23:36:29 23:39:09 71° 340° (NNW) 23:41:47 2401.200-2431.200
POPSAT HIP 1 08 Dec 23:36:49 23:40:25 26° 97° (E) 23:43:58 437.405
CUBEBUG 1 08 Dec 23:45:03 23:49:24 81° 256° (WSW) 23:53:49 437.445
BUGSAT 1 08 Dec 23:59:30 00:01:49 14° 93° (E) 00:04:06 437.445
VELOX 1 09 Dec 00:03:57 00:08:21 75° 258° (WSW) 00:12:47 145.980
GONETS M04 09 Dec 00:06:06 00:13:54 38° 87° (E) 00:21:41
DX 1 09 Dec 00:06:53 00:11:09 60° 74° (ENE) 00:15:27 434.975-435.025
UKube-1 09 Dec 00:07:58 00:12:03 44° 73° (ENE) 00:16:10 .
SPROUT 09 Dec 00:13:46 00:18:03 90° 211° (SSW) 00:22:24 437.525
50 SAT 09 Dec 00:19:16 00:22:39 48° 260° (W) 00:26:04 437.505
JAS-2 09 Dec 00:23:39 00:28:49 63° 286° (WNW) 00:34:23 435.910
NANOSAT C BR1 09 Dec 00:28:41 00:32:54 71° 283° (WNW) 00:37:03 145.865
QB50P2 09 Dec 00:37:48 00:41:52 46° 286° (WNW) 00:45:53 145.880/145.840
POLYITAN 1 09 Dec 00:38:13 00:42:18 49° 286° (WNW) 00:46:21 437.675
AO-85 09 Dec 00:44:34 00:48:54 29° 113° (ESE) 00:53:00 145.980
DUCHIFAT 1 09 Dec 00:49:25 00:53:23 43° 286° (WNW) 00:57:20 145.980
QB50P1 09 Dec 00:50:23 00:54:15 35° 287° (WNW) 00:58:05 145.935-145.965
AISAT 09 Dec 01:05:58 01:08:18 14° 267° (W) 01:10:40 437.250
PHONESAT 2.4 09 Dec 01:12:20 01:14:35 24° 354° (N) 01:16:49 2401.200-2431.200
POPSAT HIP 1 09 Dec 01:12:51 01:16:00 21° 291° (WNW) 01:19:08 437.405
SWISSCUBE 09 Dec 01:14:52 01:17:27 15° 65° (ENE) 01:20:02 437.505
BEESAT 09 Dec 01:18:39 01:21:09 14° 65° (ENE) 01:23:39 436.000
Cosmos 2499 09 Dec 01:21:48 01:30:15 64° 280° (W) 01:39:05 435.465 / 435.565
TISAT 1 09 Dec 01:24:18 01:28:32 89° 80° (E) 01:32:49 437.305
O/OREOS (USA 219) 09 Dec 01:31:26 01:35:40 40° 66° (ENE) 01:39:53 437.305
BUGSAT 1 09 Dec 01:33:28 01:37:17 35° 287° (WNW) 01:41:02 437.445
UKube-1 09 Dec 01:46:16 01:48:15 13° 267° (W) 01:50:16 .
ITUPSAT 1 09 Dec 01:46:43 01:50:45 28° 69° (ENE) 01:54:47 437.325
AUBIESAT-1 09 Dec 01:52:55 01:56:44 36° 67° (ENE) 02:00:48 437.475
GONETS M04 09 Dec 02:02:32 02:10:33 40° 284° (WNW) 02:18:35
M-CUBED/EXP-1 PRIME 09 Dec 02:07:39 02:11:43 69° 71° (ENE) 02:16:08 437.505
Oscar 19 09 Dec 02:09:38 02:14:51 87° 284° (WNW) 02:20:03 437.125/150
AO-85 09 Dec 02:25:00 02:29:16 29° 305° (NW) 02:33:18 145.980
Gurwin Techsat 1B 09 Dec 02:31:30 02:36:50 76° 103° (ESE) 02:42:08 435.225
AO-7 09 Dec 02:43:45 02:48:38 16° 93° (E) 02:53:29 29.400- 29.500
ITAMSAT 1 09 Dec 02:46:08 02:49:58 21° 95° (E) 02:53:45 435.822/435.867
PHONESAT 2.4 09 Dec 02:47:49 02:50:12 28° 11° (N) 02:52:32 2401.200-2431.200
SWISSCUBE 09 Dec 02:50:08 02:54:46 51° 260° (W) 02:59:25 437.505
BEESAT 09 Dec 02:53:47 02:58:26 53° 260° (W) 03:03:06 436.000
O/OREOS (USA 219) 09 Dec 03:12:13 03:14:40 15° 261° (W) 03:17:05 437.305
BEESAT 3 09 Dec 03:16:42 03:17:50 11° 108° (ESE) 03:18:59 437.485
ITUPSAT 1 09 Dec 03:24:32 03:28:29 25° 263° (W) 03:32:27 437.325
Cosmos 2499 09 Dec 03:24:50 03:25:13 10° 299° (WNW) 03:25:36 435.465 / 435.565
AUBIESAT-1 09 Dec 03:28:34 03:31:16 17° 263° (W) 03:34:04 437.475
MOZHAYETS 4 09 Dec 03:30:43 03:35:18 86° 79° (ENE) 03:39:54
STARS 09 Dec 03:35:36 03:38:28 17° 67° (ENE) 03:41:19 437.465
SO-50 09 Dec 03:36:57 03:39:18 14° 47° (NE) 03:41:36 436.795
KKS-1 09 Dec 03:37:21 03:41:31 40° 72° (ENE) 03:45:43 437.445
CUBESAT XI-V 09 Dec 03:44:30 03:47:07 15° 67° (ENE) 03:49:45 437.345
BEESAT 2 09 Dec 03:52:18 03:54:04 13° 108° (ESE) 03:55:50 435.950
Gurwin Techsat 1B 09 Dec 04:14:06 04:16:04 12° 298° (WNW) 04:18:03 435.225
PHONESAT 2.4 09 Dec 04:22:54 04:25:30 59° 206° (SSW) 04:28:05 2401.200-2431.200
ITAMSAT 1 09 Dec 04:24:43 04:29:31 39° 289° (WNW) 04:34:17 435.822/435.867
AO-7 09 Dec 04:33:44 04:42:10 85° 288° (WNW) 04:50:32 29.400- 29.500
HORYU 2 09 Dec 04:48:15 04:49:26 11° 92° (E) 04:50:37 437.375
BEESAT 3 09 Dec 04:51:15 04:54:59 45° 302° (WNW) 04:58:48 437.485
GOMX 1 09 Dec 04:57:40 04:58:22 10° 89° (E) 04:59:05 467.674
STARS 09 Dec 05:10:23 05:14:28 37° 261° (W) 05:18:36 437.465
KKS-1 09 Dec 05:15:33 05:18:12 15° 266° (W) 05:20:52 437.445
SO-50 09 Dec 05:15:43 05:20:10 63° 244° (WSW) 05:24:32 436.795
CUBESAT XI-V 09 Dec 05:19:43 05:24:04 44° 261° (W) 05:28:29 437.345
BEESAT 2 09 Dec 05:27:42 05:31:26 41° 303° (WNW) 05:35:13 435.950
BRITE-PL 09 Dec 05:34:43 05:40:16 66° 101° (E) 05:45:56 437.365/2234.400
YUBILEINY 09 Dec 05:41:47 05:49:55 39° 76° (ENE) 05:57:59 435.215
AIST 1 09 Dec 05:55:26 05:56:52 11° 72° (ENE) 05:58:18
Cosmos 2491 09 Dec 06:07:24 06:14:52 33° 85° (E) 06:22:19 435.465 / 435.565
